Location: Beetenbrück
(52.8113°N, 9.5946°E)
Time: 21:59:36
(UTC+00:00)

Cosmos 1869 - Pass Details

Date: 14 April 2026
Orbit: 444 x 468 km, 82.5° (Epoch: 12 May)

Event Time Altitude Azimuth Distance (km) Brightness Sun altitude
Exits shadow 21:28:44 54° 14° (NNE) 575 3.5 -23.0°
Drops below altitude 10° 21:31:35 10° 11° (NNE) 1,639 6.4 -23.2°
Sets 21:33:41 0° 12° (NNE) 2,524 7.4 -23.4°
